Home > Weather > Thule Air Base > Past weeks

Flag for Greenland Weather for the Past 2 Weeks in Thule Air Base, Greenland

Now
18 °F

Low clouds.


Feels Like: 8 °F
Forecast: 12 / 28 °F
Wind: 7 mph from East

Location: Thule A. B.

Current Time: May 5, 2016 at 1:40:12 PM

Latest Report: May 5, 2016 at 12:58 PM


Visibility: N/A

Pressure: 30.05 "Hg

Humidity: 79%

Dew Point: 12 °F

Location of Thule Air BaseLocation

Historic Weather in Thule Air Base — Graph

°F

Thule Air Base Temperature Yesterday

Maximum temperature yesterday: 27 °F (at 1:58 PM)
Minimum temperature yesterday: 5 °F (at 2:58 AM)
Average temperature yesterday: 17 °F

High & Low Weather Summary for the Past Weeks

 TemperatureHumidityPressure
High48 °F (Apr 23, 1:58 PM)93% (Apr 25, 8:58 PM)30.54 "Hg (Apr 25, 8:58 PM)
Low-3 °F (Apr 21, 3:58 AM)17% (Apr 23, 1:58 PM)29.65 "Hg (Apr 22, 12:58 PM)
Average18 °F76%30.07 "Hg
* Reported Apr 20 11:58 AM — May 5 11:58 AM, Thule Air Base, Weather by CustomWeather, © 2016

Note: Actual official high and low records may vary slightly from our data, if they occured in-between our weather recording intervals... More about our weather records

Advertising

Thule Air Base Weather History for the Previous 24 Hours

Scroll right to see more
 ConditionsComfort  
Time TempWeatherWind HumidityBarometerVisibility
11:58 AM
Thu, May 5
16 °FLow clouds.9 mph86%30.06 "Hg1 mi
10:58 AM16 °FLow clouds.3 mph86%30.07 "HgN/A
9:58 AM16 °FLow clouds.3 mph86%30.07 "HgN/A
9:00 AM16 °FIce fog.No wind86%30.12 "Hg1 mi
8:58 AM16 °FIce fog.No wind86%30.08 "Hg1 mi
7:58 AM14 °FIce fog.7 mph85%30.08 "Hg1 mi
6:58 AM14 °FIce fog.8 mph85%30.08 "Hg1 mi
5:58 AM16 °FLight freezing rain. Ice fog.8 mph79%30.08 "Hg0 mi
5:04 AM16 °FLight freezing rain. Ice fog.8 mph79%30.12 "Hg1 mi
4:58 AM16 °FLight freezing rain. Ice fog.7 mph79%30.08 "Hg0 mi
4:00 AM16 °FLight freezing rain. Ice fog.9 mph86%30.12 "Hg1 mi
3:58 AM16 °FLight freezing rain. Ice fog.9 mph86%30.08 "Hg1 mi
2:58 AM16 °FCold.8 mph86%30.08 "HgN/A
1:58 AM15 °FCold.7 mph83%30.08 "HgN/A
12:58 AM16 °FCold.8 mph86%30.09 "HgN/A
11:58 PM
Wed, May 4
18 °FLight freezing rain. Ice fog.7 mph79%30.09 "Hg0 mi
11:02 PM18 °FLow clouds.9 mph86%30.13 "Hg2 mi
9:58 PM19 °FLow clouds.5 mph86%30.10 "HgN/A
8:58 PM21 °FLow clouds.3 mph86%30.10 "HgN/A
7:58 PM23 °FLow clouds.2 mph80%30.09 "HgN/A
6:58 PM23 °FLow clouds.5 mph80%30.09 "HgN/A
5:58 PM23 °FLow clouds.2 mph80%30.09 "HgN/A
4:58 PM23 °FLow clouds.3 mph86%30.09 "HgN/A
3:58 PM27 °FLow clouds.5 mph74%30.08 "HgN/A
2:58 PM27 °FLow clouds.1 mph74%30.07 "HgN/A
1:58 PM27 °FPartly sunny.3 mph74%30.07 "HgN/A
Weather by CustomWeather, © 2016

See weather overviewHow to use our weather pages